FW2032 Weather Reports


time (UTC)temp
C
wind
direction
speed
KPH
gust
KPH
rain 1hr
cm
rain 24hr
cm
rain mn
cm
humidity
%
barometer
mb
20260906175530 32 159 6.4 14.5 0.00 0.00 0.00 63 1016.5
20260906175030 32 141 6.4 12.9 0.00 0.00 0.00 63 1016.7
20260906174556 32 147 6.4 12.9 0.00 0.00 0.00 63 1016.7
20260906174032 32 151 6.4 12.9 0.00 0.00 0.00 64 1016.7
20260906173532 32 179 4.8 12.9 0.00 0.00 0.00 65 1016.7
20260906173049 32 201 6.4 11.3 0.00 0.00 0.00 66 1016.8
20260906172531 32 193 4.8 9.7 0.00 0.00 0.00 68 1016.8
20260906172031 32 205 6.4 11.3 0.00 0.00 0.00 66 1017.1
20260906171554 32 154 6.4 11.3 0.00 0.00 0.00 65 1017.1
20260906171031 32 159 4.8 11.3 0.00 0.00 0.00 66 1017.2
20260906170530 32 159 6.4 12.9 0.00 0.00 0.00 65 1017.2
20260906170103 32 157 6.4 12.9 0.00 0.00 0.00 64 1017.3
20260906165529 32 148 3.2 8.0 0.00 0.00 0.00 65 1017.2
20260906165031 32 138 4.8 11.3 0.00 0.00 0.00 65 1017.3
20260906164553 32 137 4.8 11.3 0.00 0.00 0.00 65 1017.3
20260906164029 32 164 4.8 11.3 0.00 0.00 0.00 64 1017.3
20260906163531 32 143 3.2 11.3 0.00 0.00 0.00 66 1017.3
20260906163051 32 144 6.4 11.3 0.00 0.00 0.00 64 1017.4
20260906162532 32 126 4.8 11.3 0.00 0.00 0.00 65 1017.4
20260906162028 32 130 4.8 11.3 0.00 0.00 0.00 66 1017.4
20260906161546 32 103 6.4 11.3 0.00 0.00 0.00 65 1017.4
20260906161028 32 147 4.8 12.9 0.00 0.00 0.00 66 1017.3
20260906160529 32 145 4.8 12.9 0.00 0.00 0.00 65 1017.3
20260906160051 32 117 4.8 12.9 0.00 0.00 0.00 65 1017.3
20260906155532 32 137 1.6 12.9 0.00 0.00 0.00 64 1017.4
20260906155032 32 109 3.2 12.9 0.00 0.00 0.00 68 1017.4
20260906154552 31 131 4.8 14.5 0.00 0.00 0.00 67 1017.4
20260906154029 31 131 6.4 14.5 0.00 0.00 0.00 66 1017.4
20260906153533 31 136 4.8 12.9 0.00 0.00 0.00 67 1017.3
20260906153047 31 136 4.8 12.9 0.00 0.00 0.00 68 1017.3
20260906152528 31 106 3.2 11.3 0.00 0.00 0.00 69 1017.2
20260906152035 31 115 6.4 12.9 0.00 0.00 0.00 68 1017.1
20260906151559 31 96 4.8 12.9 0.00 0.00 0.00 69 1017.1
20260906151032 31 101 4.8 14.5 0.00 0.00 0.00 71 1017.1
20260906150532 31 147 6.4 14.5 0.00 0.00 0.00 70 1017.0
20260906150050 30 96 6.4 14.5 0.00 0.00 0.00 71 1017.1
20260906145532 30 138 8.0 12.9 0.00 0.00 0.00 72 1017.1
20260906145030 30 104 6.4 12.9 0.00 0.00 0.00 72 1017.3
20260906144548 30 136 4.8 12.9 0.00 0.00 0.00 73 1017.3
20260906144031 29 122 6.4 12.9 0.00 0.00 0.00 73 1017.2
20260906143532 29 108 8.0 12.9 0.00 0.00 0.00 74 1017.2
20260906143049 28 101 6.4 12.9 0.00 0.00 0.00 74 1017.0
20260906142531 28 88 3.2 11.3 0.00 0.00 0.00 77 1017.0
20260906142034 28 78 4.8 11.3 0.00 0.00 0.00 77 1017.1
20260906141545 28 92 3.2 9.7 0.00 0.00 0.00 79 1017.3
20260906141032 27 101 3.2 9.7 0.00 0.00 0.00 80 1017.4
20260906140533 27 92 3.2 9.7 0.00 0.00 0.00 82 1017.3
20260906140051 26 96 0.0 4.8 0.00 0.00 0.00 85 1017.3
20260906135535 26 0 1.6 4.8 0.00 0.00 0.00 87 1017.2
20260906135031 25 0 0.0 3.2 0.00 0.00 0.00 89 1017.3
20260906134548 25 0 0.0 3.2 0.00 0.00 0.00 90 1017.3
20260906134031 25 96 0.0 3.2 0.00 0.00 0.00 91 1017.2
20260906133528 25 0 0.0 3.2 0.00 0.00 0.00 93 1017.2
20260906133050 24 0 0.0 3.2 0.00 0.00 0.00 94 1017.2
20260906132532 23 0 0.0 0.0 0.00 0.00 0.00 94 1017.0
20260906132029 23 0 0.0 1.6 0.00 0.00 0.00 94 1016.7
20260906131547 23 0 0.0 3.2 0.00 0.00 0.00 94 1016.6
20260906131028 23 0 0.0 3.2 0.00 0.00 0.00 94 1016.6
20260906130532 22 97 0.0 1.6 0.00 0.00 0.00 94 1016.5
20260906130046 22 0 0.0 1.6 0.00 0.00 0.00 94 1016.4
20260906125532 22 0 0.0 1.6 0.00 0.00 0.00 94 1016.3
20260906125031 22 0 0.0 0.0 0.00 0.00 0.00 94 1016.3
20260906124550 22 0 0.0 0.0 0.00 0.00 0.00 95 1016.1
20260906124035 22 0 0.0 3.2 0.00 0.00 0.00 94 1016.0
20260906123528 21 0 0.0 4.8 0.00 0.00 0.00 94 1016.0
20260906123048 21 98 1.6 4.8 0.00 0.00 0.00 94 1015.9
20260906122529 21 98 0.0 3.2 0.00 0.00 0.00 94 1015.8
20260906122030 21 0 0.0 0.0 0.00 0.00 0.00 94 1015.8
20260906121553 21 0 0.0 0.0 0.00 0.00 0.00 94 1015.7
20260906121028 21 0 0.0 0.0 0.00 0.00 0.00 94 1015.6
20260906120529 21 0 0.0 0.0 0.00 0.00 0.00 94 1015.7
20260906120109 21 0 0.0 1.6 0.00 0.00 0.00 93 1015.6
20260906115529 21 0 0.0 3.2 0.00 0.00 0.00 94 1015.6
20260906115028 21 0 0.0 3.2 0.00 0.00 0.00 94 1015.5
20260906114548 21 98 1.6 3.2 0.00 0.00 0.00 94 1015.5
20260906114031 21 98 1.6 3.2 0.00 0.00 0.00 94 1015.5
20260906113528 21 98 1.6 3.2 0.00 0.00 0.00 93 1015.4
20260906113049 21 98 0.0 3.2 0.00 0.00 0.00 93 1015.4
20260906112533 21 0 0.0 1.6 0.00 0.00 0.00 93 1015.4
20260906112029 21 0 0.0 1.6 0.00 0.00 0.00 93 1015.3
20260906111604 21 0 0.0 4.8 0.00 0.00 0.00 93 1015.4
20260906111029 21 0 0.0 4.8 0.00 0.00 0.00 93 1015.3
20260906110528 22 98 1.6 3.2 0.00 0.00 0.00 93 1015.3
20260906110048 22 0 1.6 3.2 0.00 0.00 0.00 93 1015.3
20260906105529 22 98 0.0 3.2 0.00 0.00 0.00 93 1015.3
20260906105030 22 98 1.6 3.2 0.00 0.00 0.00 93 1015.2
20260906104549 21 0 0.0 3.2 0.00 0.00 0.00 92 1015.3
20260906104030 22 98 1.6 3.2 0.00 0.00 0.00 92 1015.2
20260906103528 22 98 0.0 3.2 0.00 0.00 0.00 92 1015.3
20260906103047 22 0 0.0 0.0 0.00 0.00 0.00 92 1015.2
20260906102528 22 0 0.0 0.0 0.00 0.00 0.00 92 1015.2
20260906102031 22 0 0.0 0.0 0.00 0.00 0.00 91 1015.2
20260906101546 22 0 0.0 0.0 0.00 0.00 0.00 91 1015.2
20260906101028 22 0 0.0 0.0 0.00 0.00 0.00 91 1015.2
20260906100530 22 0 0.0 0.0 0.00 0.00 0.00 92 1015.2
20260906100050 22 0 0.0 0.0 0.00 0.00 0.00 91 1015.1
20260906095529 22 0 0.0 0.0 0.00 0.00 0.00 91 1015.1
20260906095030 22 0 0.0 0.0 0.00 0.00 0.00 92 1015.1
20260906094548 22 0 0.0 3.2 0.00 0.00 0.00 92 1015.2
20260906094028 22 0 0.0 3.2 0.00 0.00 0.00 92 1015.1
20260906093529 22 98 0.0 3.2 0.00 0.00 0.00 92 1015.0
20260906093054 22 0 0.0 3.2 0.00 0.00 0.00 92 1015.0
20260906092528 22 98 0.0 3.2 0.00 0.00 0.00 92 1015.0
20260906092029 22 98 0.0 3.2 0.00 0.00 0.00 92 1015.0
20260906091550 22 98 0.0 3.2 0.00 0.00 0.00 92 1015.0
20260906091033 22 0 0.0 3.2 0.00 0.00 0.00 91 1014.9
20260906090533 22 0 0.0 0.0 0.00 0.00 0.00 91 1015.0
20260906085535 22 0 0.0 0.0 0.00 0.00 0.00 92 1014.9
20260906085033 22 0 0.0 0.0 0.00 0.00 0.00 91 1014.8
20260906084551 23 0 0.0 0.0 0.00 0.00 0.00 91 1014.8
20260906084033 23 0 0.0 0.0 0.00 0.00 0.00 91 1014.8
20260906083529 23 0 0.0 0.0 0.00 0.00 0.00 91 1014.7
20260906083054 23 0 0.0 0.0 0.00 0.00 0.00 91 1014.6
20260906082529 23 0 0.0 0.0 0.00 0.00 0.00 91 1014.6
20260906082033 23 0 0.0 0.0 0.00 0.00 0.00 91 1014.7
20260906081550 23 0 0.0 0.0 0.00 0.00 0.00 91 1014.5
20260906081029 23 0 0.0 0.0 0.00 0.00 0.00 90 1014.6
20260906080529 23 0 0.0 0.0 0.00 0.00 0.00 90 1014.5
20260906080050 23 0 0.0 0.0 0.00 0.00 0.00 89 1014.4
20260906075532 23 0 0.0 0.0 0.00 0.00 0.00 89 1014.4
20260906075029 23 0 0.0 0.0 0.00 0.00 0.00 89 1014.3
20260906074547 23 0 0.0 0.0 0.00 0.00 0.00 88 1014.3
20260906074029 23 0 0.0 0.0 0.00 0.00 0.00 88 1014.4
20260906073529 23 0 0.0 0.0 0.00 0.00 0.00 89 1014.4
20260906073052 23 0 0.0 0.0 0.00 0.00 0.00 88 1014.3
20260906072529 23 0 0.0 0.0 0.00 0.00 0.00 88 1014.4
20260906072029 24 0 0.0 0.0 0.00 0.00 0.00 87 1014.4
20260906071558 24 0 0.0 0.0 0.00 0.00 0.00 86 1014.4
20260906071033 24 0 0.0 0.0 0.00 0.00 0.00 86 1014.4
20260906070533 24 0 0.0 0.0 0.00 0.00 0.00 85 1014.4
20260906070056 24 0 0.0 0.0 0.00 0.00 0.00 84 1014.6
20260906065532 25 0 0.0 0.0 0.00 0.00 0.00 84 1014.7
20260906065032 25 0 0.0 0.0 0.00 0.00 0.00 84 1014.7
20260906064550 25 0 0.0 0.0 0.00 0.00 0.00 83 1014.7
20260906064029 25 0 0.0 0.0 0.00 0.00 0.00 83 1014.8
20260906063533 25 0 0.0 0.0 0.00 0.00 0.00 83 1014.7
20260906063055 25 0 0.0 0.0 0.00 0.00 0.00 83 1014.8
20260906062535 25 0 0.0 0.0 0.00 0.00 0.00 83 1014.7
20260906062033 25 0 0.0 0.0 0.00 0.00 0.00 82 1014.9
20260906061548 25 0 0.0 0.0 0.00 0.00 0.00 83 1014.8
20260906061032 25 0 0.0 0.0 0.00 0.00 0.00 83 1014.8
20260906060528 25 0 0.0 0.0 0.00 0.00 0.00 83 1014.9
20260906060058 25 0 0.0 0.0 0.00 0.00 0.00 83 1014.9
20260906055530 25 0 0.0 0.0 0.00 0.00 0.00 83 1014.9
20260906055029 25 0 0.0 0.0 0.00 0.00 0.00 83 1014.9
20260906054550 25 0 0.0 0.0 0.00 0.00 0.00 83 1014.9
20260906054033 25 0 0.0 0.0 0.00 0.00 0.00 83 1015.0
20260906053529 25 0 0.0 0.0 0.00 0.00 0.00 82 1014.9
20260906053051 25 0 0.0 0.0 0.00 0.00 0.00 82 1015.0
20260906052530 25 0 0.0 0.0 0.00 0.00 0.00 82 1015.0
20260906052033 25 0 0.0 0.0 0.00 0.00 0.00 82 1014.9
20260906051546 25 0 0.0 0.0 0.00 0.00 0.00 82 1014.9
20260906051029 25 0 0.0 0.0 0.00 0.00 0.00 82 1014.9
20260906050533 25 0 0.0 0.0 0.00 0.00 0.00 82 1014.9
20260906050055 25 0 0.0 0.0 0.00 0.00 0.00 81 1015.0
20260906045529 25 0 0.0 0.0 0.00 0.00 0.00 81 1015.0
20260906045029 26 0 0.0 0.0 0.00 0.00 0.00 81 1015.0
20260906044550 26 0 0.0 0.0 0.00 0.00 0.00 81 1014.9
20260906044030 26 0 0.0 0.0 0.00 0.00 0.00 81 1015.0
20260906043529 26 0 0.0 0.0 0.00 0.00 0.00 81 1014.9
20260906043046 26 0 0.0 0.0 0.00 0.00 0.00 81 1014.9
20260906042529 26 0 0.0 0.0 0.00 0.00 0.00 81 1014.8
20260906042029 26 0 0.0 0.0 0.00 0.00 0.00 80 1014.9
20260906041556 26 0 0.0 0.0 0.00 0.00 0.00 80 1014.8
20260906041028 26 0 0.0 0.0 0.00 0.00 0.00 79 1014.9
20260906040528 26 0 0.0 0.0 0.00 0.00 0.00 79 1014.9
20260906040051 26 0 0.0 0.0 0.00 0.00 0.00 79 1014.7
20260906035528 26 0 0.0 0.0 0.00 0.00 0.00 79 1014.7
20260906035029 26 0 0.0 0.0 0.00 0.00 0.00 79 1014.7
20260906034548 26 0 0.0 0.0 0.00 0.00 0.00 79 1014.7
20260906034029 26 0 0.0 0.0 0.00 0.00 0.00 79 1014.6
20260906033528 26 0 0.0 0.0 0.00 0.00 0.00 79 1014.6
20260906033045 26 0 0.0 0.0 0.00 0.00 0.00 79 1014.5
20260906032528 27 0 0.0 0.0 0.00 0.00 0.00 79 1014.5
20260906032028 27 0 0.0 0.0 0.00 0.00 0.00 78 1014.5
20260906031553 27 0 0.0 0.0 0.00 0.00 0.00 78 1014.5
20260906031028 27 0 0.0 0.0 0.00 0.00 0.00 78 1014.4
20260906030529 27 0 0.0 0.0 0.00 0.00 0.00 78 1014.4
20260906030050 27 0 0.0 0.0 0.00 0.00 0.00 77 1014.3
20260906025534 27 0 0.0 0.0 0.00 0.00 0.00 77 1014.2
20260906025029 27 0 0.0 1.6 0.00 0.00 0.00 77 1014.1
20260906024559 27 0 0.0 1.6 0.00 0.00 0.00 76 1014.1
20260906024032 27 0 0.0 3.2 0.00 0.00 0.00 76 1014.1
20260906023530 27 0 0.0 3.2 0.00 0.00 0.00 75 1014.1
20260906023056 28 70 0.0 3.2 0.00 0.00 0.00 75 1014.0
20260906022528 28 70 1.6 3.2 0.00 0.00 0.00 75 1013.8
20260906022030 28 0 0.0 3.2 0.00 0.00 0.00 74 1013.8
20260906021556 28 70 0.0 3.2 0.00 0.00 0.00 74 1013.8
20260906021031 28 0 0.0 1.6 0.00 0.00 0.00 74 1013.7
20260906020529 28 0 0.0 1.6 0.00 0.00 0.00 74 1013.8
20260906020052 28 0 0.0 1.6 0.00 0.00 0.00 73 1013.7
20260906015529 28 0 0.0 3.2 0.00 0.00 0.00 73 1013.7
20260906015030 28 0 0.0 3.2 0.00 0.00 0.00 73 1013.5
20260906014600 29 70 1.6 3.2 0.00 0.00 0.00 73 1013.5
20260906014033 29 70 1.6 3.2 0.00 0.00 0.00 72 1013.5
20260906013528 29 70 1.6 3.2 0.00 0.00 0.00 72 1013.5
20260906013047 29 70 1.6 3.2 0.00 0.00 0.00 72 1013.4
20260906012529 30 0 0.0 3.2 0.00 0.00 0.00 71 1013.3
20260906012029 30 0 0.0 3.2 0.00 0.00 0.00 71 1013.3
20260906011548 30 0 0.0 4.8 0.00 0.00 0.00 71 1013.2
20260906011029 30 70 1.6 4.8 0.00 0.00 0.00 71 1013.2
20260906010530 30 70 1.6 4.8 0.00 0.00 0.00 70 1013.1
20260906010109 30 70 1.6 4.8 0.00 0.00 0.00 70 1013.1
20260906005529 30 70 1.6 4.8 0.00 0.00 0.00 70 1013.1
20260906005033 31 70 1.6 3.2 0.00 0.00 0.00 70 1013.2
20260906004553 31 70 1.6 3.2 0.00 0.00 0.00 69 1013.2
20260906004029 31 70 1.6 4.8 0.00 0.00 0.00 69 1013.2
20260906003529 31 70 1.6 4.8 0.00 0.00 0.00 69 1013.2
20260906003108 31 70 1.6 4.8 0.00 0.00 0.00 68 1013.2
20260906002528 32 70 3.2 4.8 0.00 0.00 0.00 67 1013.3
20260906002029 32 70 1.6 4.8 0.00 0.00 0.00 67 1013.2
20260906001549 32 68 1.6 4.8 0.00 0.00 0.00 67 1013.2
20260906001029 32 68 1.6 4.8 0.00 0.00 0.00 67 1013.2
20260906000528 33 68 1.6 4.8 0.00 0.00 0.00 67 1013.2
20260906000046 33 68 1.6 4.8 0.00 0.00 0.00 66 1013.3
20260905235529 33 68 3.2 4.8 0.00 0.00 0.00 64 1013.3
20260905235028 33 68 3.2 4.8 0.00 0.00 0.00 64 1013.3
20260905234553 33 0 0.0 0.0 0.00 0.00 0.00 65 1013.3
20260905234033 33 0 0.0 0.0 0.00 0.00 0.00 64 1013.2
20260905233529 33 0 0.0 0.0 0.00 0.00 0.00 64 1013.1
20260905233046 33 0 0.0 0.0 0.00 0.00 0.00 64 1013.1
20260905232531 33 0 0.0 0.0 0.00 0.00 0.00 63 1013.2
20260905232029 33 0 0.0 3.2 0.00 0.00 0.00 62 1013.1
20260905231546 33 0 0.0 4.8 0.00 0.00 0.00 62 1013.1
20260905231028 33 0 1.6 4.8 0.00 0.00 0.00 63 1013.2
20260905230529 34 112 1.6 4.8 0.00 0.00 0.00 61 1013.1
20260905230053 34 112 1.6 4.8 0.00 0.00 0.00 60 1013.2
20260905225529 34 113 1.6 6.4 0.00 0.00 0.00 60 1013.2
20260905225029 34 116 3.2 6.4 0.00 0.00 0.00 60 1013.1
20260905224546 34 116 1.6 4.8 0.00 0.00 0.00 60 1013.1
20260905224029 34 0 1.6 4.8 0.00 0.00 0.00 59 1013.2
20260905223529 35 116 1.6 4.8 0.00 0.00 0.00 58 1013.2
20260905223053 35 116 1.6 4.8 0.00 0.00 0.00 56 1013.2
20260905222532 35 116 1.6 6.4 0.00 0.00 0.00 56 1013.2
20260905222030 35 117 3.2 6.4 0.00 0.00 0.00 54 1013.2
20260905221547 35 117 3.2 9.7 0.00 0.00 0.00 53 1013.2
20260905221028 35 117 3.2 9.7 0.00 0.00 0.00 52 1013.2
20260905220528 35 117 4.8 9.7 0.00 0.00 0.00 50 1013.2
20260905220047 35 114 3.2 9.7 0.00 0.00 0.00 50 1013.3
20260905215529 35 115 4.8 9.7 0.00 0.00 0.00 48 1013.2
20260905215033 35 99 4.8 9.7 0.00 0.00 0.00 49 1013.3
20260905214552 35 97 3.2 9.7 0.00 0.00 0.00 50 1013.5
20260905214029 35 97 3.2 11.3 0.00 0.00 0.00 51 1013.5
20260905213529 36 118 4.8 11.3 0.00 0.00 0.00 50 1013.7
20260905213047 36 70 6.4 11.3 0.00 0.00 0.00 47 1013.8
20260905212531 36 99 4.8 12.9 0.00 0.00 0.00 46 1013.8
20260905212028 36 119 6.4 16.1 0.00 0.00 0.00 47 1013.9
20260905211556 36 100 8.0 16.1 0.00 0.00 0.00 46 1014.0
20260905211032 36 130 9.7 17.7 0.00 0.00 0.00 44 1014.0
20260905210532 36 106 6.4 17.7 0.00 0.00 0.00 45 1014.1
20260905210052 36 95 4.8 14.5 0.00 0.00 0.00 45 1014.0
20260905205529 36 165 8.0 14.5 0.00 0.00 0.00 46 1014.0
20260905205029 36 163 3.2 12.9 0.00 0.00 0.00 47 1014.0
20260905204558 36 130 8.0 16.1 0.00 0.00 0.00 45 1014.2
20260905204029 36 148 9.7 16.1 0.00 0.00 0.00 46 1014.3
20260905203531 36 182 8.0 16.1 0.00 0.00 0.00 47 1014.2
20260905203059 36 157 6.4 14.5 0.00 0.00 0.00 47 1014.2
20260905202529 36 174 8.0 20.9 0.00 0.00 0.00 48 1014.3
20260905202028 36 166 11.3 20.9 0.00 0.00 0.00 46 1014.5
20260905201546 36 157 4.8 16.1 0.00 0.00 0.00 48 1014.5
20260905201029 36 99 4.8 12.9 0.00 0.00 0.00 47 1014.6
20260905200533 36 103 4.8 14.5 0.00 0.00 0.00 47 1014.6
20260905200100 36 148 4.8 17.7 0.00 0.00 0.00 47 1014.7
20260905195529 36 163 9.7 17.7 0.00 0.00 0.00 47 1014.9
20260905195029 36 160 6.4 16.1 0.00 0.00 0.00 46 1015.0
20260905194551 36 121 4.8 16.1 0.00 0.00 0.00 47 1015.0
20260905194031 36 128 8.0 14.5 0.00 0.00 0.00 46 1015.1
20260905193529 36 107 4.8 16.1 0.00 0.00 0.00 47 1015.2
20260905193104 36 130 8.0 17.7 0.00 0.00 0.00 45 1015.2
20260905192529 36 146 6.4 17.7 0.00 0.00 0.00 48 1015.2
20260905192029 36 109 8.0 19.3 0.00 0.00 0.00 49 1015.3
20260905191558 36 131 8.0 19.3 0.00 0.00 0.00 49 1015.3
20260905191028 36 157 3.2 14.5 0.00 0.00 0.00 48 1015.2
20260905190529 36 171 4.8 17.7 0.00 0.00 0.00 48 1015.2
20260905190100 36 157 9.7 19.3 0.00 0.00 0.00 49 1015.2
20260905185530 36 219 8.0 19.3 0.00 0.00 0.00 50 1015.2
20260905185033 36 188 4.8 19.3 0.00 0.00 0.00 48 1015.2
20260905184555 36 152 8.0 19.3 0.00 0.00 0.00 48 1015.3
20260905184032 36 184 9.7 17.7 0.00 0.00 0.00 49 1015.3
20260905183529 36 220 8.0 16.1 0.00 0.00 0.00 51 1015.3
20260905183100 35 160 6.4 16.1 0.00 0.00 0.00 52 1015.4
20260905182529 35 144 9.7 16.1 0.00 0.00 0.00 51 1015.5
20260905182030 35 167 8.0 19.3 0.00 0.00 0.00 53 1015.6
20260905181554 35 178 9.7 19.3 0.00 0.00 0.00 53 1015.7
20260905181029 35 161 8.0 16.1 0.00 0.00 0.00 52 1015.7
20260905180534 35 160 8.0 14.5 0.00 0.00 0.00 55 1015.8
20260905180100 35 155 6.4 14.5 0.00 0.00 0.00 56 1015.9